Location: Laterina
(43.5167°N, 11.7167°E)
Time: 16:12:59
(UTC+00:00)

Cosmos 2142 Rocket - Pass Details

Date: 24 September 2020
Orbit: 952 x 1005 km, 82.9° (Epoch: 25 October)

Event Time Altitude Azimuth Distance (km) Brightness Sun altitude
Exits shadow 19:24:34 30° 178° (S) 1,669 5.5 -25.2°
Maximum altitude 19:27:50 80° 96° (E) 997 4.3 -25.7°
Drops below altitude 10° 19:34:04 10° 10° (N) 2,718 7.0 -26.7°
Sets 19:36:34 0° 10° (N) 3,662 7.7 -27.1°
